Tracking 35275 objects as of 9-Sep-2026
HD Live streaming from Space Station
objects crossing your sky now

STARLINK-1227

Track STARLINK-1227 now!
10-day predictions
STARLINK-1227 is classified as:


NORAD ID: 45230
Int'l Code: 2020-012BE
Launch date: February 17, 2020
Source: United States (US)
Launch site: AIR FORCE EASTERN TEST RANGE (AFETR)
Your satellite tracking list
Your tracking list is empty




NASA's NSSDC Master Catalog

Two Line Element Set (TLE):
1 45230U 20012BE  26252.59521817  .00059387  00000-0  88772-3 0  9991
2 45230  53.1535 206.3109 0002652 103.4933 256.6374 15.54468490363941
Source of the keplerian elements: AFSPC